カタログに戻る

STARLINK-31810

運用中通信VLEO
NORAD 59799·PAYLOAD·🇺🇸 United States

打ち上げ May 18, 2024 から Cape Canaveral Space Force Station

Loading…

次のパス (今後24時間)

TLE

最新Source: CelesTrak SupGP

元期: Sep 15, 2026, 02:03 UTC

1 59799C 24093T   26258.08590278 -.00036784  00000+0 -13324-2 0  2581
2 59799  42.9996 219.4750 0001177 267.4444 280.9383 15.27595347    17

AllMySatでSTARLINK-31810をリアルタイム追跡

Download on the App Store